Regional Weather Roundup
Issued by NWS

Home | Current Version | Previous Version | Text Only | Print | Product List | Glossary On
Versions: 1 2 3 4 5 6 7 8 9 10 11 12 13 14 15 16 17 18 19 20 21 22 23 24 25 26 27 28 29 30 31 32 33 34 35 36 37 38 39 40 41 42 43 44 45 46 47 48 49 50
000
ASUS44 KFWD 182115
RWRTX
NORTH TEXAS HOURLY WEATHER ROUNDUP
NATIONAL WEATHER SERVICE FORT WORTH TX
400 PM CDT THU SEP 18 2014

NOTE: "FAIR" INDICATES FEW OR NO CLOUDS BELOW 12,000 FEET WITH NO
SIGNIFICANT WEATHER AND/OR OBSTRUCTIONS TO VISIBILITY.

TXZ118-119-182200-
DALLAS/FORT WORTH METROPLEX

CITY           SKY/WX    TMP DP  RH WIND       PRES   REMARKS
DFW AIRPORT    CLOUDY    85  71  63 NE14      29.85F HX  90
DALLAS LOVE    PTSUNNY   87  71  58 E14G21    29.85F HX  93
FTW MEACHAM    CLOUDY    87  70  56 NE12      29.85S HX  92
DAL-EXECUTIVE  PTSUNNY   88  69  53 E12       29.85F HX  92
FTW-ALLIANCE   CLOUDY    84  69  60 NE12      29.86F
FTW-NAS-JRB    CLOUDY    91  68  46 NE9       29.89F HX  95
FTW-SPINKS     MOSUNNY   90  68  48 NE6       29.85F HX  93
ARLINGTON      PTSUNNY   88  66  48 NE14      29.85F HX  90
GRAND PRAIRIE  SUNNY     88  64  45 MISG      29.85F
ADDISON        PTSUNNY   84  70  61 MISG      29.87F
MESQUITE       PTSUNNY   88  66  48 NE7       29.85F HX  90
LANCASTER      MOSUNNY   86  69  56 NE7       29.85F HX  90
$$

TXZ091>094-102>105-117-120-121-131>134-182200-
NORTH CENTRAL TEXAS

CITY           SKY/WX    TMP DP  RH WIND       PRES   REMARKS
SHRMAN/DENISON CLOUDY    84  68  58 SE5       29.88F
GAINESVILLE    CLOUDY    81  69  66 NE8       29.90S
BOWIE          CLOUDY    79  70  74 CALM      29.90F
BRIDGEPORT     CLOUDY    82  68  62 E6        29.90F
DECATUR        CLOUDY    81  69  66 NE7       29.89F
DENTON         CLOUDY    81  71  71 E9        29.86F
MCKINNEY       CLOUDY    85  68  56 E8        29.86F
GREENVILLE     CLOUDY    86  66  51 N3        29.86F
ROCKWALL       PTSUNNY   83  70  63 E8        29.85F
TERRELL        PTSUNNY   90  68  48 E12G20    29.86F HX  94
WAXAHACHIE     PTSUNNY   88  64  45 NE8       29.86F
CLEBURNE       CLOUDY    88  72  58 NE14      29.86F HX  94
GRANBURY       CLOUDY    86  71  59 CALM      29.87S HX  91
$$

TXZ083>090-098>101-113>116-127>130-139>142-154-155-182200-
WESTERN NORTH TEXAS

CITY           SKY/WX    TMP DP  RH WIND       PRES   REMARKS
WICHITA FALLS  CLOUDY    80  69  69 E8        29.89F
WF-KICKAPOO    CLOUDY    79  67  68 SE5       29.91F
VERNON         CLOUDY    80  67  64 E8        29.93F
ABILENE        RAIN      69  68  96 N14G25    29.93S FOG
ABILENE-DYESS  HVY RAIN  68  64  88 NE13      29.92S
BRECKENRIDGE   LGT RAIN  76  75  97 N5        29.91S
GRAHAM         CLOUDY    81  70  68 NW3       29.89S
MINERAL WELLS  CLOUDY    84  67  56 N9        29.86F
STEPHENVILLE   CLOUDY    83  70  64 NE7       29.90F
COMANCHE       CLOUDY    82  72  71 NE6       29.89F
BROWNWOOD      CLOUDY    79  73  83 NE6       29.87F
COLEMAN        TSTM      74  70  87 N7        29.90R
BRADY          LGT RAIN  77  75  94 N13       29.88S
$$

TXZ143>147-156>162-174-175-182200-
CENTRAL TEXAS

CITY           SKY/WX    TMP DP  RH WIND       PRES   REMARKS
WACO           CLOUDY    82  72  71 E8        29.85F
WACO-TSTC      CLOUDY    81  73  78 E8        29.85S
WACO-MCGREGOR  CLOUDY    81  70  69 SE10      29.87R
HILLSBORO      PTSUNNY   89  66  46 NE12      29.84F HX  91
CORSICANA      PTSUNNY   89  70  53 SE12G17   29.85F HX  94
MEXIA          RAIN      77  73  86 E18G25    29.86R
HEARNE         TSTM      74  72  94 NE13G31   29.87S
CAMERON        CLOUDY    75  73  95 E7        29.84F
TEMPLE         CLOUDY    75  70  83 E7        29.86R
KILLEEN        TSTM      79  73  83 N14       29.86R
KILLEEN-SKYLRK CLOUDY    79  70  73 NE12      29.85R
FORT HOOD      CLOUDY    78  74  87 N6        29.85S THUNDER
GATESVILLE     CLOUDY    79  75  89 CALM      29.88R FOG
HAMILTON       DRIZZLE   77  77 100 E7        29.88F
LAMPASAS       TSTM      73  72  95 NE7       29.90R VSB 1/4
$$

TXZ095>097-106>112-122>126-135>138-148>153-164>167-182200-
EAST TEXAS

CITY           SKY/WX    TMP DP  RH WIND       PRES   REMARKS
PARIS          PTSUNNY   86  66  51 E7        29.87F
SULPHUR SPRNGS PTSUNNY   84  66  53 E7        29.88F
MOUNT PLEASANT CLOUDY    84  72  66 E7        29.87F
GILMER         PTSUNNY   84  73  70 E3        29.88F HX  91
MINEOLA        PTSUNNY   84  73  70 CALM      29.87F HX  91
TYLER          PTSUNNY   84  72  67 E9        29.86F
LONGVIEW       TSTM      76  73  91 VRB3      29.87S FOG
MARSHALL       PTSUNNY   87  73  64 S7        29.89S HX  94
ATHENS         PTSUNNY   86  70  58 E9G18     29.84F HX  90
PALESTINE      DRIZZLE   74  72  93 E10       29.90S
JACKSONVILLE   PTSUNNY   73  68  82 S7        29.91F
HENDERSON      PTSUNNY   81  69  67 SE13G18   29.89F
NACOGDOCHES    CLOUDY    72  70  94 S8        29.90F
LUFKIN         LGT RAIN  74  69  85 E8        29.91F
$$

SUPPLEMENTAL OBSERVATIONS (CENTRAL)

CITY           SKY/WX    TMP DP  RH WIND       PRES   REMARKS
LAKE TEXOMA      N/A     81  66  61 SE7         N/A
CADDO GRASSLND   N/A     88  72  58 S5          N/A  HX  94
PAT MAYSE LAKE   N/A     84  66  54 E5          N/A
GREENVILLE       N/A     86  68  54 E5G13       N/A
ATHENS           N/A     86  70  58 E6G16       N/A  HX  90
PALESTINE        N/A     73  70  88 SE7         N/A
LAKE LIMESTONE   N/A     75  72  88 E6          N/A
MCGREGOR         N/A     79  70  73 E10         N/A
TEMPLE           N/A     73  70  88 E10G26      N/A
$$

SUPPLEMENTAL OBSERVATIONS (WEST)

CITY           SKY/WX    TMP DP  RH WIND       PRES   REMARKS
MILLERS CREEK    N/A     72  66  83 SW10        N/A
POSSUM KINGDOM   N/A     77  73  88 NW2         N/A
LBJ GRASSLAND    N/A     82  70  65 NE5G13      N/A
GRANBURY         N/A     88  72  58 E3          N/A  HX  94
COMANCHE         N/A     81  72  74 E9          N/A
HAMBY            N/A     68  64  88 N5          N/A
IVIE RESERVOIR   N/A     81  68  65 NE10G21     N/A
COLORADO BEND    N/A     72  68  88 NW6G16      N/A
$$

SUPPLEMENTAL OBSERVATIONS (EAST)

CITY           SKY/WX    TMP DP  RH WIND       PRES   REMARKS
CLARKSVILLE      N/A     84  68  58 E6          N/A
TEXARKANA        N/A     82  72  69 SE2         N/A
LINDEN           N/A     84  72  65 SE1         N/A
CADDO LAKE       N/A     88  72  58 SE3         N/A  HX  94
GILMER           N/A     84  72  65 E5          N/A
HENDERSON        N/A     82  70  65 S10G20      N/A
LUFKIN           N/A     72  66  83 MISG        N/A
S SABINE NF      N/A     79  72  78 SE2         N/A
$$

SUPPLEMENTAL OBSERVATIONS ARE A COLLECTION OF AUTOMATED INSTRUMENTS
THAT ARE MAINTAINED BY A VARIETY OF FEDERAL AND STATE AGENCIES.
CERTAIN ELEMENTS...SUCH AS HUMIDITY VALUES AND SUSTAINED WIND
SPEEDS...MAY BE APPROXIMATED.



USA.gov is the U.S. government's official web portal to all federal, state and local government web resources and services.